Regional Weather Roundup
Issued by NWS

Home | Current Version | Previous Version | Text Only | Print | Product List | Glossary On
Versions: 1 2 3 4 5 6 7 8 9 10 11 12 13 14 15 16 17 18 19 20 21 22 23 24 25 26 27 28 29 30 31 32 33 34 35 36 37 38 39 40 41 42 43 44 45 46 47 48 49 50
000
ASUS43 KIND 111459
RWRIN

WEATHER ROUNDUP FOR INDIANA
NATIONAL WEATHER SERVICE INDIANAPOLIS IN
1000 AM EST SUN DEC 11 2016

NOTE: "FAIR" INDICATES FEW OR NO CLOUDS BELOW 12,000 FEET WITH NO
SIGNIFICANT WEATHER AND/OR OBSTRUCTIONS TO VISIBILITY.

* - STATION DOES NOT REPORT WEATHER SUCH AS PRECIPITATION OR FOG.

+ - STATION NOT QUALITY CONTROLLED BY THE NATIONAL WEATHER SERVICE.
    USE DATA WITH CAUTION...ESPECIALLY DEWPOINT AND RELATIVE
    HUMIDITY OBSERVATIONS.

INZ001>003-010>013-019-020-111600-
NORTHWEST INDIANA

CITY           SKY/WX    TMP DP  RH WIND       PRES   REMARKS
GARY /AIRPORT/ LGT SNOW  30  27  86 SE17      30.04F WCI  18
MONTICELLO +   LGT SNOW  28  24  84 SE8       30.07S VSB 3/4 WCI  20
VALPARAISO     LGT SNOW  28  24  85 MISG      30.06F FOG

$$

LMZ046-743>745-111600-
SOUTHERN LAKE MICHIGAN

STATION/POSITION TIME  TEMP    WIND        PRES    WAVE
                       AIR SEA DIR/SP/G            HT
                 (UTC) (F)     (DEG/KT/KT) (MB)    (FT)
BURNS HARBOR     1440   27     150/  9/ 19 1018.3F

$$

INZ004-005-014>016-021>024-111600-
NORTH CENTRAL INDIANA

CITY           SKY/WX    TMP DP  RH WIND       PRES   REMARKS
GOSHEN         SNOW      26  22  84 SE14      30.10F VSB 1/4 WCI  14
SOUTH BEND     SNOW      25  24  96 SE15      30.09F VSB 1/4 WCI  13

$$

INZ006>009-017-018-025>027-111600-
NORTHEAST INDIANA

CITY           SKY/WX    TMP DP  RH WIND       PRES   REMARKS
ANGOLA *+      CLOUDY    25  23  93 SE12      30.13F VSB 3/4 WCI  14
FORT WAYNE     SNOW      27  24  89 SE13      30.14F VSB 1/4 WCI  16
KENDALLVILLE + LGT SNOW  25  23  91 SE13G18   30.13S VSB 3/4 WCI  14

$$

INZ028-029-035-036-043>045-051>053-111600-
WEST CENTRAL INDIANA

CITY           SKY/WX    TMP DP  RH WIND       PRES   REMARKS
CRAWFORDSVL +  CLOUDY    30  26  85 S13       30.08F WCI  20
GREENCASTLE +  CLOUDY    32  23  69 S15       30.10F WCI  22
LAFAYETTE      CLOUDY    30  27  88 S10       30.07F WCI  21
TERRE HAUTE    CLOUDY    35  22  58 S13G23    30.09F WCI  26

$$

INZ030>032-037>040-046>048-054>057-064-065-111600-
CENTRAL INDIANA

CITY           SKY/WX    TMP DP  RH WIND       PRES   REMARKS
COLUMBUS       CLOUDY    32  21  64 SE9       30.17F WCI  24
GREENWOOD *+   CLOUDY    32  21  63 SE10G16   30.13F WCI  24
INDIANAPOLIS   CLOUDY    32  19  58 S9        30.11F WCI  24
-EAGLE CREEK   CLOUDY    33  19  56 S8        30.11F WCI  26
KOKOMO +       LGT SNOW  28  26  92 SE17      30.11F FOG     WCI  16
SHELBYVILLE    CLOUDY    33  19  56 SE15      30.13F WCI  23

$$

INZ033-034-041-042-049-050-058-059-111600-
EAST CENTRAL INDIANA

CITY           SKY/WX    TMP DP  RH WIND       PRES   REMARKS
MUNCIE         CLOUDY    31  23  72 S9        30.14F WCI  23

$$

INZ060-061-067>069-081>083-085>088-111600-
SOUTHWEST INDIANA

CITY           SKY/WX    TMP DP  RH WIND       PRES   REMARKS
EVANSVILLE     CLOUDY    41  18  39 S12       30.12F
HUNTINGBURG *+ CLOUDY    39  18  42 SE12      30.11F

$$

INZ062-063-066-070>080-084-089>092-111600-
SOUTH CENTRAL AND SOUTHEAST INDIANA

CITY           SKY/WX    TMP DP  RH WIND       PRES   REMARKS
BLOOMINGTON    CLOUDY    34  18  52 SE10      30.11F WCI  26
MADISON *+     CLOUDY    34  19  55 SE5       30.20S WCI  30
SEYMOUR +      CLOUDY    36  19  51 SE10      30.16F

$$





USA.gov is the U.S. government's official web portal to all federal, state and local government web resources and services.